Location: Ajisawe
(8.4333°N, 4.3833°E)
Time: 22:08:11
(UTC+00:00)

Vanguard 1 Rocket - Pass Details

Date: 22 April 2021
Orbit: 652 x 4224 km, 34.3° (Epoch: 10 May)

Event Time Altitude Azimuth Distance (km) Brightness Sun altitude
Rises 19:55:33 0° 299° (WNW) 3,537 11.6 -30.2°
Reaches altitude 10° 19:57:36 10° 296° (WNW) 2,815 10.8 -30.7°
Maximum altitude 20:04:21 69° 214° (SW) 1,591 8.4 -32.3°
Enters shadow 20:06:28 56° 160° (SSE) 1,927 8.7 -32.8°
